Wind_Speed
4 3 7 12 9 5 3 5 7 4 2 1 3 2 9 11 9 8 9 10 12 14 14 18 22 27 27 29 27 27 29 29 29 26 24 24 26 24 21 18 15 15 18 17
2 7 12 4 7 6 5 2 5 2 3 1 7 2 8 14 10 12 12 12 14 11 10 15 21 23 25 31 32 30 31 30 31 30 28 27 28 25 23 21 20 18 18 20
6 9 3 4 5 4 3 5 5 4 2 1 3 7 5 9 6 10 11 14 14 15 16 14 20 26 25 28 34 36 35 35 35 33 31 29 27 25 25 26 23 22 20 21
6 5 3 4 5 6 2 7 5 9 5 2 3 4 4 4 11 14 16 15 16 17 16 13 17 24 30 32 34 36 38 36 35 34 34 33 29 28 34 32 27 21 21 23
7 2 5 4 5 4 8 6 8 4 4 3 1 2 6 4 7 11 14 19 17 18 18 18 19 28 33 32 33 38 37 38 36 37 37 35 34 35 32 31 29 23 22 22
8 4 3 6 2 5 6 6 7 6 3 4 2 3 6 1 5 2 9 13 17 19 19 19 29 29 29 33 31 34 37 40 39 39 39 39 37 38 32 30 28 24 23 21
7 4 3 4 1 3 7 6 3 4 2 5 4 4 8 9 4 4 8 11 15 18 19 21 22 25 30 32 35 32 36 35 39 41 40 41 41 39 38 34 31 27 24 25
2 7 4 5 3 3 4 5 5 1 2 2 3 3 5 6 5 2 2 3 6 8 16 19 21 27 31 34 34 32 32 34 36 38 41 41 40 40 38 34 32 31 28 25
2 4 6 1 3 2 1 5 4 7 3 2 3 5 5 6 9 6 6 6 7 7 4 11 14 26 27 26 28 38 38 36 37 39 37 36 37 38 39 37 33 29 28 25
4 2 2 6 3 5 1 5 4 4 1 1 4 3 4 3 3 1 5 7 6 6 8 2 5 13 18 25 29 34 35 34 37 34 34 36 38 39 39 36 34 31 28 25
4 3 6 3 5 3 5 3 6 5 3 4 1 5 6 6 6 5 5 3 3 5 6 5 5 12 21 26 32 33 31 27 24 29 30 32 33 37 35 37 36 33 29 27
2 4 1 1 2 2 2 3 4 5 2 2 3 5 3 5 1 4 6 5 3 4 6 6 6 9 10 8 4 9 11 13 17 16 18 18 21 26 31 35 36 34 33 29
4 3 3 7 7 5 6 3 5 4 3 3 4 5 0 3 5 3 3 4 4 6 6 6 7 7 9 9 9 6 5 15 16 19 21 23 24 26 30 31 29 29 32 33
8 3 6 5 6 3 2 3 3 4 3 4 5 5 4 6 7 8 6 3 2 5 6 4 4 3 3 2 8 10 8 10 17 20 20 20 23 25 23 14 10 10 17 30
4 4 4 5 4 2 3 5 4 6 5 6 4 7 5 6 7 7 7 5 4 3 6 3 3 3 3 5 2 5 5 9 15 20 25 16 12 16 18 15 11 8 2 8
2 2 4 2 1 2 4 7 7 6 4 2 4 4 2 5 2 4 3 6 4 3 3 2 2 4 7 9 10 7 8 10 11 16 20 16 5 14 23 20 20 22 16 16
3 6 3 5 3 5 4 5 4 4 3 6 5 5 2 2 6 6 6 5 4 6 6 6 3 5 9 11 9 6 5 5 11 14 17 21 24 28 32 30 29 30 25 22
7 6 3 4 2 3 7 6 4 5 4 3 7 6 4 4 3 3 2 5 6 5 4 3 4 6 7 9 3 5 5 2 4 5 7 12 17 22 25 28 33 34 37 27
4 5 3 4 5 4 2 4 6 5 2 0 8 7 7 5 2 5 4 1 3 3 3 1 4 8 12 14 12 10 7 4 2 2 7 17 20 23 24 24 27 30 32 36
6 5 4 3 4 7 8 6 6 6 0 7 6 10 8 5 2 4 3 2 2 4 3 3 4 7 11 12 14 15 16 12 8 8 7 9 18 19 22 24 23 26 31 30
2 2 6 3 4 7 6 4 5 5 8 10 12 9 7 5 4 5 4 3 2 2 4 5 2 5 10 11 13 17 19 23 22 19 14 9 10 14 22 25 26 26 24 22
7 5 4 3 2 6 6 5 7 7 1 10 7 7 8 5 7 6 6 3 4 3 4 5 6 9 12 14 14 14 17 20 23 23 23 21 17 14 12 15 18 21 25 32
2 7 5 8 6 4 5 4 4 6 8 7 9 5 8 9 6 6 4 5 2 2 3 3 4 7 10 14 15 17 18 21 21 24 24 18 15 15 14 17 16 15 20 23
3 4 4 2 3 4 3 1 2 2 6 7 6 7 8 9 7 6 6 5 3 3 3 5 8 11 15 17 17 16 18 20 17 17 21 25 19 15 14 15 14 17 15 13
4 6 6 3 5 4 3 2 5 6 7 8 7 7 9 8 7 6 6 6 6 4 1 2 5 10 15 20 22 23 23 23 23 23 21 21 22 18 14 13 15 16 16 14
4 6 4 5 6 4 5 3 6 9 8 11 10 7 5 6 8 6 6 9 8 5 3 2 6 11 17 20 22 23 23 21 21 25 25 21 20 22 21 16 17 13 15 14
Wind_Direction
194 131 223 238 209 237 211 213 237 239 327 28 203 51 175 172 176 179 177 196 209 220 222 215 213 215 215 221 224 227 226 223 221 220 222 226 231 231 233 240 240 234 229 228
356 239 243 206 241 234 223 195 250 338 103 204 349 220 172 178 201 187 186 200 217 217 216 221 222 219 216 219 225 224 224 223 223 225 223 223 230 236 237 239 238 233 231 230
180 243 316 312 281 173 215 170 208 206 73 14 33 305 166 198 197 189 194 207 214 214 211 211 213 220 222 222 223 227 228 226 224 226 225 227 235 238 240 239 236 231 232 227
236 275 233 288 258 136 296 190 160 141 122 212 62 271 315 189 192 198 207 205 206 215 218 217 215 220 219 223 228 229 231 231 230 227 225 225 222 228 237 238 234 230 226 228
256 244 234 247 233 158 228 122 152 158 90 88 296 41 268 119 212 213 207 211 209 213 210 214 214 218 221 219 220 229 231 232 232 229 227 226 226 236 240 240 234 230 228 229
251 262 238 209 273 196 116 83 48 54 64 0 357 141 297 149 264 171 209 213 207 210 213 216 216 214 220 222 217 221 226 228 229 230 230 231 229 232 236 238 234 231 228 230
333 281 278 207 271 358 64 63 4 37 37 219 302 104 258 298 277 221 174 205 214 216 215 211 211 207 214 213 217 215 216 218 226 228 229 231 233 232 234 239 239 236 233 235
32 350 11 346 225 189 60 136 144 184 162 272 351 267 280 317 308 156 122 164 185 222 230 222 211 205 208 207 206 207 211 211 218 224 229 232 231 231 236 238 241 244 242 243
124 283 311 239 330 54 153 43 166 104 20 75 276 291 322 343 30 40 26 0 315 297 282 213 201 205 206 204 199 204 211 212 217 224 226 227 229 232 235 239 242 247 250 252
184 340 325 296 41 29 114 151 40 14 104 79 312 285 233 280 168 280 263 255 295 323 344 343 185 188 182 194 201 204 212 212 219 221 223 228 229 234 237 242 243 246 250 253
116 143 290 13 27 323 16 42 52 110 100 146 121 274 219 210 216 231 267 255 13 4 11 32 65 132 168 192 204 204 210 209 214 221 225 227 232 234 237 240 244 245 249 253
182 130 196 212 358 291 4 109 107 112 222 83 130 281 261 250 322 6 305 21 356 50 31 47 67 97 139 162 194 233 222 210 214 215 220 234 248 244 241 245 247 249 248 250
184 34 18 353 0 355 48 16 110 104 84 185 128 264 316 35 50 345 232 295 327 70 62 59 53 48 57 73 69 58 169 184 205 216 218 221 228 241 247 252 258 260 261 256
85 109 148 176 203 182 30 9 91 106 106 180 221 282 301 354 330 310 271 177 77 77 72 33 45 55 43 116 126 120 124 191 208 207 216 215 226 234 245 246 263 274 284 275
104 150 176 232 222 189 216 226 193 199 194 160 260 208 277 300 297 286 269 136 110 58 76 81 308 308 290 280 115 126 146 218 225 225 232 238 254 225 210 198 199 220 338 22
20 187 166 270 178 218 260 253 236 226 129 263 167 245 290 321 24 19 46 128 145 135 28 84 296 312 306 290 287 249 218 214 243 252 246 253 240 221 215 205 204 224 246 286
131 134 107 248 353 5 334 246 219 197 173 155 172 208 64 33 50 21 42 102 115 58 47 42 0 300 298 292 294 302 316 257 253 252 245 247 238 223 225 229 228 232 249 267
150 133 134 200 57 249 244 286 204 116 20 147 113 123 135 106 86 56 20 132 124 108 62 23 334 347 4 3 303 278 324 212 229 272 278 258 251 245 237 234 243 251 237 247
154 125 154 158 185 275 22 200 166 146 352 38 141 150 151 157 112 8 341 349 177 171 172 301 345 346 347 1 3 349 356 8 27 48 215 218 222 223 221 225 235 245 256 253
78 79 125 135 166 202 231 208 158 120 301 219 201 172 163 144 114 243 259 272 235 250 275 287 326 333 335 339 346 359 8 8 3 5 324 228 208 212 223 231 242 253 247 242
37 40 173 175 223 282 246 161 139 110 232 170 189 195 170 182 192 170 166 200 202 250 317 358 357 352 353 1 0 11 16 10 359 1 353 335 293 267 253 252 246 235 236 209
174 164 199 116 139 265 162 78 159 206 22 157 161 177 175 157 134 148 173 163 155 124 48 52 58 42 30 26 19 14 11 359 353 353 358 358 343 318 297 282 268 255 239 238
211 187 187 175 213 230 238 260 268 176 143 161 154 154 151 147 165 162 171 183 185 117 117 96 32 13 16 12 7 358 350 348 345 337 338 349 346 344 324 306 304 271 241 236
238 160 160 81 266 256 301 143 168 163 126 127 125 145 160 159 158 174 185 187 172 149 70 16 356 348 338 343 342 344 342 341 339 333 327 327 339 334 324 319 312 285 267 248
203 137 157 249 273 279 281 196 151 106 104 116 129 155 169 151 177 167 168 178 175 162 95 30 360 334 322 325 325 330 337 342 338 338 336 327 320 324 318 306 304 298 291 281
188 181 153 214 216 156 232 198 152 147 160 155 145 136 159 169 166 148 156 168 171 165 158 329 325 317 317 322 324 330 335 338 336 339 337 327 321 318 319 306 304 299 299 296
Height
774 791 797 779 776 770 773 781 777 763 752 760 767 771 776 775 777 783 785 787 787 786 791 794 796 798 801 804 806 808 812 814 817 820 822 824 824 827 829 832 833 834 836 837
780 792 764 761 764 770 775 780 780 767 759 761 766 770 769 772 771 773 779 783 783 787 788 790 793 796 797 798 801 804 806 810 813 817 819 821 822 824 827 830 831 833 834 835
783 764 752 758 765 772 772 776 778 770 768 764 769 773 772 769 765 769 771 773 776 778 779 781 785 789 793 793 793 797 801 803 807 812 816 819 822 823 824 826 827 829 831 833
772 753 754 760 760 761 772 756 758 772 781 796 771 808 774 770 769 766 765 766 768 770 772 775 779 782 783 786 790 792 795 800 803 806 810 812 815 817 818 821 824 826 828 830
768 755 757 759 753 751 764 751 762 769 787 789 790 802 780 772 776 765 758 756 757 758 762 765 768 769 772 778 781 785 789 794 797 800 803 807 811 811 815 818 822 823 825 827
760 743 743 747 737 740 745 759 777 789 799 817 798 800 791 772 764 754 751 749 749 749 752 755 756 763 766 771 776 779 783 786 791 794 798 801 804 808 812 816 818 819 821 824
766 751 741 735 746 741 752 781 814 814 823 825 807 804 784 760 748 742 745 744 739 738 740 743 746 752 758 762 765 771 774 780 784 787 792 795 799 804 807 811 815 817 818 819
792 789 748 733 741 750 761 776 810 809 828 818 799 804 776 752 745 734 733 735 736 738 733 731 735 741 745 749 756 764 768 771 776 781 784 789 794 799 804 807 811 814 816 815
788 778 743 739 736 740 760 786 775 815 819 818 812 785 757 752 747 743 739 738 737 733 727 726 728 733 739 745 751 753 758 763 768 773 780 785 790 795 799 803 807 810 813 814
766 785 753 746 739 744 747 763 789 808 812 814 813 800 793 764 756 751 751 749 743 736 732 727 728 731 737 741 745 751 755 760 763 770 775 780 783 789 794 799 802 806 808 812
763 776 771 754 764 771 770 777 800 807 820 827 829 806 768 761 753 753 751 746 742 740 738 735 734 735 736 740 743 746 753 758 766 768 774 776 781 785 789 793 797 800 804 806
761 783 790 769 760 762 762 774 791 810 806 834 827 805 749 751 749 750 750 741 742 739 740 741 741 742 744 746 750 755 760 764 769 771 776 780 786 787 787 789 792 795 798 801
756 791 813 797 781 766 775 772 793 803 810 817 820 803 753 750 751 748 745 745 747 744 746 746 746 748 749 751 754 755 757 758 760 764 764 765 769 777 781 785 792 795 797 798
756 795 797 815 795 784 777 772 778 790 811 812 809 781 755 763 762 755 747 745 749 750 752 752 751 750 750 751 754 757 756 755 755 755 757 758 760 765 775 782 787 790 794 797
760 782 785 780 779 776 774 772 772 779 782 792 782 787 767 767 764 758 750 749 751 752 753 754 752 751 751 751 756 758 756 756 754 753 755 756 759 762 765 769 774 779 781 785
767 783 782 776 773 774 778 771 774 772 778 777 780 777 761 761 756 754 748 750 753 750 751 753 752 752 752 753 754 757 759 757 755 754 752 752 756 757 763 760 761 765 766 767
767 786 796 797 785 779 790 767 759 756 762 770 782 768 762 764 761 760 756 753 754 754 754 755 755 753 752 753 756 759 761 760 759 760 756 755 754 754 751 751 753 754 753 747
777 784 796 800 789 807 773 758 753 762 766 763 763 761 762 763 763 760 756 755 755 755 756 756 754 753 753 753 754 758 761 763 763 762 759 757 753 751 751 752 752 752 746 741
765 784 797 802 807 785 768 757 757 760 770 758 761 761 760 760 761 762 756 754 754 755 756 755 754 752 751 752 754 756 758 761 763 763 761 759 755 753 752 751 750 748 747 745
771 775 783 809 796 800 763 740 736 744 788 756 756 756 758 760 774 771 756 754 752 752 753 753 753 753 753 753 753 754 756 757 757 758 758 756 754 752 750 750 749 748 747 748
777 786 788 801 790 775 744 734 736 775 771 745 747 750 755 760 758 753 753 753 752 752 752 753 754 755 755 754 753 753 753 752 752 752 751 751 750 748 746 748 749 749 747 746
768 781 788 795 785 778 732 739 752 738 732 732 743 747 751 751 753 753 754 755 755 755 755 755 755 756 755 754 753 754 754 755 751 749 747 745 742 742 742 741 741 741 744 743
765 755 763 764 762 736 732 729 719 722 726 735 738 742 745 749 752 753 755 756 756 757 757 757 757 756 756 755 754 754 754 753 751 748 746 745 743 739 737 737 736 739 740 740
739 744 750 749 735 730 725 723 722 719 722 729 733 739 743 747 752 754 755 756 757 757 757 757 756 755 754 754 754 755 753 751 750 749 745 741 740 737 736 734 734 734 732 732
738 737 745 746 734 728 721 719 721 723 725 730 735 738 742 746 751 753 756 757 758 758 758 759 758 758 756 754 752 752 750 747 746 745 744 741 736 735 733 731 730 728 726 724
733 734 741 745 725 727 724 718 721 725 727 730 734 741 744 745 748 751 756 757 758 759 760 761 761 759 757 754 752 749 748 747 745 740 739 737 737 735 729 726 721 719 718 716